This is the latest recevied weather packets stored in our database for station/object HB9KBJ-8. If no packets are shown the sender has not sent any weather packets the latest 10 day(s).
| Time | Temp. | Humidity | Pressure | Rain* | Wind** | Luminosity | Snow |
|---|---|---|---|---|---|---|---|
| 1777986439 | 16.11° C | 74% | 1009.4 hPa | 0 mm | - | 243 W/m² | - |
| 1777986144 | 16.11° C | 75% | 1009.3 hPa | 0 mm | - | 362 W/m² | - |
| 1777985843 | 16.11° C | 75% | 1009.5 hPa | 0 mm | - | 668 W/m² | - |
| 1777985541 | 15.56° C | 78% | 1009.5 hPa | 0 mm | - | 761 W/m² | - |
| 1777985241 | 15.56° C | 78% | 1009.6 hPa | 0 mm | - | 784 W/m² | - |
| 1777984940 | 15.56° C | 79% | 1009.5 hPa | 0 mm | - | 441 W/m² | - |
| 1777984640 | 15.56° C | 79% | 1009.5 hPa | 0 mm | - | 338 W/m² | - |
| 1777984337 | 15.56° C | 79% | 1009.5 hPa | 0 mm | - | 413 W/m² | - |
| 1777984036 | 15.56° C | 81% | 1009.6 hPa | 0 mm | - | 438 W/m² | - |
| 1777983738 | 15.56° C | 81% | 1009.5 hPa | 0 mm | - | 362 W/m² | - |
| 1777983442 | 15.56° C | 80% | 1009.5 hPa | 0 mm | - | 383 W/m² | - |
| 1777983136 | 15.56° C | 81% | 1009.6 hPa | 0 mm | - | 454 W/m² | - |
| 1777982852 | 15.56° C | 82% | 1009.6 hPa | 0 mm | - | 541 W/m² | - |
| 1777982555 | 15° C | 82% | 1009.6 hPa | 0 mm | - | 373 W/m² | - |
| 1777982246 | 14.44° C | 82% | 1009.6 hPa | 0 mm | - | 707 W/m² | - |
| 1777981941 | 13.89° C | 83% | 1009.6 hPa | 0 mm | - | 594 W/m² | - |
| 1777981636 | 13.89° C | 84% | 1009.7 hPa | 0.25 mm | - | 413 W/m² | - |
| 1777981336 | 13.89° C | 86% | 1009.8 hPa | 0.25 mm | - | 401 W/m² | - |
| 1777981035 | 13.89° C | 86% | 1009.8 hPa | 0.25 mm | - | 512 W/m² | - |
| 1777980735 | 13.89° C | 86% | 1009.8 hPa | 0.51 mm | - | 334 W/m² | - |
| 1777980451 | 13.33° C | 86% | 1009.8 hPa | 0.51 mm | - | 332 W/m² | - |
| 1777980154 | 13.33° C | 86% | 1009.8 hPa | 0.51 mm | - | 281 W/m² | - |
| 1777979836 | 13.33° C | 86% | 1009.7 hPa | 0.51 mm | - | 220 W/m² | - |
| 1777979550 | 13.33° C | 87% | 1009.8 hPa | 0.51 mm | - | 227 W/m² | - |
| 1777979249 | 13.33° C | 87% | 1009.7 hPa | 0.51 mm | - | 346 W/m² | - |
* Rain latest hour (hover to see other rain measurements)
** Current wind speed in m/s (hover to see current wind gust speed)